{"data":{"norad_id":66968,"epoch":"2026-09-20T08:06:24.636096Z","epoch_age_seconds":95290,"freshness":"FRESH","line1":"1 66968U 25288K   26263.33778514  .00008356  00000+0  31275-3 0  9999","line2":"2 66968  43.0003   4.4103 0001157 254.7250 105.3474 15.27586392 45054","mean_motion":15.27586392,"eccentricity":0.0001157,"inclination_deg":43.0003,"raan_deg":4.4103,"arg_perigee_deg":254.725,"mean_anomaly_deg":105.3474,"bstar":0.00031275,"rev_number":4505,"period_min":94.266354265874,"perigee_km":482.23611914206,"apogee_km":483.82379317571,"semimajor_km":6861.1669561589,"source":"CELESTRAK","updated_at":"2026-09-21T09:00:36.063842Z"}}